Theta_e
304 297 294 294 297 300 301 301 300 300 300 299 299 297 295 295 296 299 299 302 303 299 297 297 298 298 298 300 301 303 304 303 303 303 303 304 305 305 306 306 307 306 307 311 312 310 309 309 309 310 309 309 309 308 309 308 309 310 310 311 311 312 312 313 314 315 316 316 316 317 316 315 316 316 317 317 317 317 316 316 314 311 310 310 309 308
301 296 296 299 300 302 302 303 302 301 300 298 297 296 294 296 294 299 299 302 303 298 296 298 297 297 298 300 301 303 302 301 302 303 303 304 305 306 306 306 306 306 310 310 307 307 308 308 309 309 309 308 307 308 308 308 308 309 309 309 310 311 311 311 312 314 315 316 316 315 315 315 315 315 314 314 315 315 315 315 314 311 310 309 308 307
296 294 298 301 303 303 303 302 300 298 297 297 295 295 294 295 298 300 301 302 300 296 294 297 295 296 298 299 301 302 302 303 304 304 305 305 307 306 306 305 305 306 305 305 305 307 306 307 306 306 306 306 306 306 306 307 307 308 308 309 309 310 310 310 311 312 313 314 315 315 315 315 314 316 316 315 315 315 314 314 313 311 310 309 307 306
294 298 301 303 303 301 301 301 299 297 297 295 295 293 292 297 295 293 299 297 297 296 294 296 294 295 298 301 302 303 303 304 305 306 306 307 306 305 304 304 304 304 303 303 304 304 304 305 305 305 304 304 305 305 305 305 305 306 306 307 308 309 309 309 309 309 311 313 314 315 314 314 314 313 314 313 313 313 312 311 311 310 310 308 307 306
297 302 304 303 302 301 298 299 298 296 294 298 297 295 294 295 297 296 296 299 299 299 300 296 295 296 301 299 300 303 304 303 305 306 307 307 307 307 306 305 304 302 303 302 302 302 303 303 303 303 303 304 303 303 303 304 304 305 305 306 307 308 308 308 308 308 309 310 311 312 312 309 309 310 307 308 308 309 309 309 308 307 309 308 306 306
298 303 303 300 300 300 298 296 297 297 294 296 299 298 297 298 296 297 297 295 293 293 295 294 289 291 298 299 300 302 302 302 305 305 305 304 304 304 303 302 302 303 303 302 301 301 301 301 301 301 301 301 302 302 303 304 304 304 305 305 306 307 307 307 308 308 308 307 307 307 306 305 304 304 305 304 304 305 305 306 308 308 307 307 306 305
299 301 300 300 299 298 298 296 298 299 294 293 295 300 299 297 296 296 295 294 288 287 295 297 287 286 296 297 300 301 302 302 304 304 302 302 302 301 301 301 301 301 301 301 301 301 300 300 299 299 299 300 300 301 303 303 303 303 303 304 305 305 305 307 306 307 306 306 306 305 305 305 305 304 306 307 307 307 307 307 306 306 306 306 305 305
299 298 297 298 297 297 296 294 298 298 295 292 298 299 299 297 295 295 295 293 291 296 297 296 293 288 289 296 301 302 300 301 302 300 300 300 299 299 299 300 300 300 300 300 299 299 299 299 298 298 298 298 299 300 301 301 302 302 302 303 303 303 304 305 305 305 306 304 304 304 304 304 304 304 304 306 306 307 306 306 305 305 305 304 304 304
298 297 297 296 296 295 295 298 303 301 296 297 297 298 296 295 295 295 294 292 292 291 288 293 295 288 289 296 300 300 297 300 298 298 298 299 299 299 299 299 299 299 299 299 298 298 297 297 298 298 298 299 299 299 299 300 300 301 301 302 302 301 302 303 303 304 304 304 303 303 304 303 304 304 304 305 305 304 304 303 304 303 303 303 303 303
298 299 300 300 297 294 299 299 300 300 295 300 297 297 297 296 296 295 292 291 291 288 285 291 294 287 289 297 296 299 297 296 296 297 298 297 298 298 298 299 298 298 298 298 297 297 297 297 297 298 298 298 298 299 300 300 300 300 300 300 300 300 301 301 302 302 303 303 303 302 302 302 303 303 304 304 303 303 303 302 302 302 302 301 301 302
299 296 298 298 297 300 298 295 298 300 300 297 298 296 295 296 294 294 293 291 289 284 287 294 294 292 286 295 297 296 297 298 298 298 297 297 298 297 297 296 296 296 296 296 296 296 296 297 297 297 296 296 297 297 298 298 299 299 299 299 298 298 299 300 300 301 301 302 302 302 302 302 302 302 302 302 302 302 302 301 301 301 301 301 300 300
298 296 295 298 301 299 299 296 295 297 298 297 294 293 292 292 294 291 290 291 284 284 291 295 294 295 285 292 297 298 300 300 299 298 296 295 295 295 295 295 295 295 295 295 295 294 295 295 295 296 295 295 295 296 296 297 298 298 298 298 298 297 298 298 299 299 299 300 301 301 301 301 301 301 301 301 301 302 301 302 301 301 301 300 300 300
294 295 298 300 298 299 297 295 296 296 296 294 293 292 287 286 288 285 287 282 284 285 289 292 294 290 289 294 299 300 299 297 298 299 297 295 294 294 294 294 294 294 294 293 293 293 293 293 293 293 294 294 294 294 295 295 296 297 297 297 297 296 297 297 298 298 298 299 299 299 299 300 300 300 301 300 300 301 301 301 301 300 299 300 299 298
294 300 298 298 297 298 299 292 293 291 293 293 290 290 286 283 282 280 284 286 286 288 289 290 293 287 293 296 300 299 296 297 296 297 296 295 294 293 293 294 293 293 293 292 292 292 292 292 293 293 293 293 293 294 294 295 295 296 296 296 295 296 296 296 296 297 297 298 298 298 298 298 299 299 300 300 300 300 300 301 300 300 300 299 299 299
285 287 294 296 294 299 297 297 298 297 294 293 297 294 289 287 283 278 282 279 282 285 288 289 287 285 286 292 296 295 296 296 296 295 295 294 293 293 293 293 292 292 292 292 291 291 291 291 292 292 293 293 293 293 293 294 294 295 295 295 295 295 295 295 296 296 295 296 297 297 298 298 298 298 298 298 299 299 299 300 300 300 300 299 299 300
290 290 296 300 297 298 296 300 301 298 295 297 297 297 290 288 293 284 286 286 286 286 286 287 286 291 292 300 299 296 295 294 294 293 293 292 292 292 291 291 291 291 291 291 290 290 290 290 291 291 292 292 292 292 293 293 294 294 294 295 295 294 294 295 295 295 295 295 295 296 296 297 297 297 298 298 299 299 299 299 299 299 299 299 299 300
290 287 295 298 296 297 297 299 299 300 286 292 292 288 291 298 294 288 288 289 288 286 283 290 288 292 297 297 297 294 292 292 292 292 292 291 291 291 290 290 290 289 289 289 289 289 289 289 290 290 290 291 291 292 292 292 293 293 293 293 293 294 294 294 294 295 295 295 294 294 294 295 296 296 296 296 297 297 298 298 298 298 299 299 299 299
287 289 298 296 295 296 294 297 298 298 299 295 287 293 296 298 296 290 282 285 284 280 282 288 284 287 287 284 293 293 290 290 291 290 291 291 291 290 289 289 289 289 289 289 290 289 289 289 289 289 290 290 290 291 291 291 292 292 293 292 292 292 292 293 294 294 294 294 294 294 294 294 294 294 295 295 296 296 296 297 297 298 298 298 299 299
295 286 293 297 298 295 296 296 295 299 299 295 292 298 290 285 284 289 285 277 278 277 280 284 286 286 288 288 292 290 290 289 289 290 290 289 289 289 289 289 289 290 290 289 289 289 289 288 288 288 288 289 290 290 291 291 291 291 291 291 292 291 292 292 293 294 294 295 294 294 294 294 293 293 293 294 294 295 295 295 296 296 296 297 297 297
296 285 288 296 295 296 296 295 287 292 295 297 296 293 298 291 286 285 286 286 285 278 279 279 284 282 292 291 292 290 290 290 289 289 288 288 289 288 289 288 289 288 288 288 288 289 288 288 288 287 287 287 288 289 290 290 290 289 289 289 290 291 291 291 291 292 292 293 293 293 293 293 293 293 293 293 293 292 292 293 293 294 294 295 295 296
290 295 283 291 295 296 288 293 289 292 288 290 289 288 291 288 292 291 290 286 282 280 280 279 278 284 291 291 292 290 290 291 290 289 289 288 288 288 287 287 287 287 287 287 287 287 286 286 287 287 287 288 289 289 290 290 289 289 289 289 289 289 289 289 290 291 291 291 291 291 291 292 292 292 292 292 292 291 291 292 292 293 293 294 294 294
288 289 284 288 288 288 290 299 295 295 295 293 292 288 291 287 284 281 279 290 286 283 280 279 277 286 292 292 291 291 291 291 291 290 289 288 287 287 287 286 285 285 285 285 285 285 285 285 285 286 286 287 287 287 287 289 289 288 288 288 288 288 288 288 289 289 289 290 290 289 290 290 290 291 291 291 291 290 291 291 291 291 292 292 293 293
293 290 288 285 287 288 292 296 298 298 297 295 293 290 293 290 289 284 277 281 286 285 286 284 281 283 290 290 290 288 287 287 289 289 288 287 287 286 286 285 285 285 285 285 285 285 285 285 285 285 285 285 286 286 286 287 288 288 287 287 287 287 287 288 289 289 289 289 289 288 288 289 289 289 289 289 289 289 289 290 290 291 290 291 291 292
292 287 285 286 290 293 295 297 296 296 295 292 293 293 289 287 288 286 285 285 281 282 281 281 278 283 290 288 286 285 285 286 286 286 286 286 286 286 285 285 285 285 286 286 286 286 286 285 285 285 286 286 286 286 286 287 287 288 288 287 287 286 287 287 288 288 288 287 287 287 287 287 287 287 287 287 288 288 288 289 289 289 289 290 290 290
287 287 286 281 282 284 287 292 290 293 293 288 288 290 289 288 289 288 287 286 280 282 283 279 274 281 290 289 287 288 286 286 286 287 287 286 286 286 286 286 286 286 287 286 287 288 288 288 287 287 287 287 287 287 288 288 288 288 288 288 288 288 288 288 288 288 288 287 286 286 286 286 287 287 287 287 287 286 287 288 288 288 288 288 288 289
288 286 284 278 276 274 274 276 280 283 285 289 288 287 289 288 287 285 281 283 278 283 284 279 279 286 291 289 290 290 288 287 287 286 287 288 287 287 287 287 286 286 286 286 286 287 287 287 287 287 287 287 286 286 286 287 288 288 289 288 289 288 288 288 289 288 288 288 287 286 286 286 286 287 287 287 287 287 287 287 287 287 287 287 287 288
286 288 286 283 280 278 281 284 288 288 286 282 285 287 287 289 289 288 285 281 277 281 279 281 283 283 285 288 289 291 290 286 286 286 286 286 286 287 287 287 287 287 286 285 286 286 286 286 286 287 287 287 287 287 286 286 287 287 287 288 288 289 288 288 288 287 287 287 287 287 286 286 286 286 286 287 287 288 287 287 286 286 285 286 286 286
286 283 285 285 284 285 286 285 287 287 284 285 284 284 286 286 286 284 281 278 284 279 274 282 284 281 283 286 288 288 289 287 286 285 285 285 286 286 286 286 288 286 287 286 286 286 285 286 286 286 287 287 287 287 287 287 287 287 287 287 287 288 289 289 288 287 287 287 286 286 287 287 286 287 287 286 287 286 287 287 286 286 286 286 286 286
284 281 284 285 283 286 286 286 287 285 285 285 284 284 283 284 284 281 281 284 283 278 276 281 283 281 283 286 287 288 286 285 285 284 285 285 285 286 285 285 286 286 287 286 286 286 286 286 286 286 286 287 287 287 287 287 287 287 287 287 287 287 287 288 288 287 287 287 286 286 287 287 287 287 287 286 286 285 285 285 286 286 286 286 286 287
285 282 284 285 282 283 284 285 286 284 283 283 283 283 284 283 283 283 283 283 283 281 283 282 283 282 284 285 287 285 285 285 285 285 285 284 284 284 283 283 284 284 285 285 285 285 285 285 286 286 287 287 287 287 287 287 287 287 287 287 287 287 288 288 287 286 286 286 286 287 287 287 287 286 286 285 285 285 285 285 285 285 285 286 286 286
284 279 285 283 279 279 282 284 284 283 281 279 281 282 282 282 282 282 282 282 282 281 282 282 281 280 285 287 285 285 285 285 284 283 283 283 283 283 282 282 283 283 284 285 285 285 285 285 285 286 286 286 286 287 287 287 288 288 288 288 287 287 287 287 286 286 286 285 286 286 286 286 286 286 286 286 285 285 285 285 285 285 284 285 285 286
285 281 284 281 276 275 280 280 280 280 280 278 278 279 279 279 278 280 279 282 280 278 280 280 278 279 284 282 285 284 283 282 282 282 282 283 283 282 282 282 282 283 283 284 285 285 285 284 284 284 285 285 286 286 287 287 288 288 288 288 288 288 288 287 286 286 285 286 286 286 285 285 286 286 286 285 285 285 285 284 284 284 284 284 284 284
283 281 278 278 274 274 278 279 277 277 276 273 274 277 280 280 281 281 282 283 282 282 278 275 277 283 282 283 280 281 281 281 281 281 282 282 282 282 282 282 283 283 284 284 284 285 285 285 285 285 285 286 287 287 287 288 287 287 288 288 288 288 287 286 286 286 285 285 285 285 285 285 285 285 285 285 285 285 285 284 284 284 283 283 284 284
282 279 277 279 272 273 276 277 277 273 267 269 281 283 282 280 280 278 278 280 281 282 280 282 280 280 281 280 279 279 280 280 281 282 284 283 282 282 283 283 283 284 284 284 285 285 286 286 286 286 287 287 287 287 288 288 288 288 289 289 288 287 286 286 285 285 285 285 285 285 285 285 284 284 284 285 285 285 284 284 283 283 284 284 284 283
279 279 277 279 274 272 276 274 271 266 268 279 283 284 283 282 281 279 280 281 281 282 282 282 283 282 283 281 280 281 281 282 283 282 283 284 284 283 283 283 283 283 283 284 284 284 285 285 286 286 286 286 286 287 287 287 288 288 288 287 286 286 285 285 285 284 284 284 284 284 284 284 284 284 284 284 284 284 283 283 283 283 283 283 283 282
279 278 278 276 277 276 273 271 264 265 277 278 280 282 284 283 282 280 278 280 281 282 282 282 283 282 281 280 280 281 281 282 283 284 284 285 285 284 283 283 283 283 283 284 284 284 285 285 285 284 284 286 286 286 286 286 287 286 284 284 283 283 283 283 283 283 283 283 283 283 283 283 283 283 283 283 283 283 282 282 282 282 283 283 283 283
282 280 278 274 278 270 272 271 270 276 275 277 278 280 280 278 279 277 273 277 283 282 282 282 281 280 280 280 281 281 281 282 280 282 285 285 285 286 285 284 284 284 284 285 285 285 285 285 284 284 284 284 284 283 283 283 283 282 281 281 281 281 281 281 281 281 282 282 282 282 283 283 282 282 283 283 282 282 282 281 282 282 283 282 282 282
283 277 278 274 272 276 271 269 270 270 266 272 280 281 283 283 281 281 278 274 281 282 284 282 280 278 279 280 280 281 281 278 276 278 283 284 285 285 285 285 285 285 285 285 285 285 284 284 283 283 283 282 281 281 281 281 281 280 279 279 279 279 279 279 279 280 280 280 281 281 281 282 282 281 281 281 281 281 281 281 281 281 282 281 280 280
280 281 279 276 273 274 271 268 267 266 268 276 275 278 281 282 282 281 276 270 277 276 279 278 278 279 279 279 279 280 277 273 274 278 283 284 284 285 284 284 284 284 285 285 284 283 283 282 281 281 281 280 279 280 279 279 278 277 277 276 277 277 277 277 277 278 278 278 279 279 279 280 280 279 279 279 279 279 279 280 280 281 281 281 281 280
275 276 276 273 271 272 271 268 267 272 270 275 277 280 281 282 283 277 266 268 277 276 280 280 279 279 279 280 280 278 276 273 275 279 283 283 284 285 284 283 283 283 283 283 283 282 281 281 280 279 278 278 278 278 276 276 275 274 274 274 274 274 274 275 275 276 276 276 276 277 277 277 277 276 276 276 277 278 278 279 279 280 280 280 280 280
272 273 275 270 271 271 272 269 272 272 277 280 279 282 282 284 279 269 264 272 277 279 280 281 279 280 280 279 280 276 279 280 281 282 283 284 283 283 284 284 283 283 281 281 280 281 279 279 278 277 276 276 276 275 274 274 272 271 271 271 271 271 272 273 273 273 274 274 274 273 273 273 273 272 272 273 274 275 276 277 277 278 278 278 278 278
271 272 272 274 270 269 270 269 269 272 278 281 282 283 283 278 268 268 276 280 279 279 281 281 280 281 281 280 280 280 281 282 283 283 283 283 283 282 282 282 281 281 281 281 280 279 277 277 275 275 275 274 273 273 272 271 270 269 269 269 269 270 271 271 271 271 270 269 269 269 268 268 269 269 270 271 271 271 272 273 275 275 275 276 276 275
272 270 268 270 272 273 271 268 267 263 275 281 280 278 281 273 274 279 281 281 282 281 281 281 281 281 282 280 281 281 281 281 281 282 282 282 281 281 280 279 279 278 278 278 277 277 275 273 273 272 272 272 271 271 270 269 267 267 267 267 268 268 268 268 268 267 266 266 266 265 265 265 265 265 265 266 268 268 269 270 271 272 273 273 273 273
277 271 271 272 276 268 268 266 266 273 278 281 279 273 278 281 283 283 282 280 282 282 281 281 281 281 282 281 280 280 281 280 281 281 281 281 280 279 279 279 278 278 277 277 276 274 273 271 271 270 270 269 269 269 268 267 265 265 265 265 267 267 266 266 265 265 264 263 263 262 262 262 262 263 263 264 265 264 265 265 267 268 269 270 271 271
277 273 275 271 276 273 270 274 278 280 281 282 282 281 282 283 284 283 282 282 281 281 282 281 281 282 282 281 280 280 279 280 279 280 279 278 278 278 277 277 276 276 275 274 273 272 271 269 268 267 267 267 267 266 266 265 264 263 263 264 265 264 264 263 263 262 261 260 260 260 261 261 261 261 261 262 262 262 262 263 264 265 267 269 270 270
280 280 280 277 275 279 280 280 281 280 281 281 283 284 282 283 284 284 283 281 282 282 283 281 281 281 281 280 278 278 278 278 278 277 277 277 276 276 276 276 275 275 274 272 271 270 268 267 266 265 264 264 264 264 265 264 264 262 262 264 264 263 263 262 261 260 260 260 260 260 260 259 260 260 261 261 261 262 262 263 263 264 265 266 266 267
279 280 277 274 277 274 269 278 278 279 281 281 282 283 284 284 284 284 283 282 282 282 281 281 280 279 279 277 276 276 276 277 276 276 276 275 275 274 274 273 273 272 270 269 269 267 266 265 263 263 262 261 263 263 263 263 263 263 263 263 263 262 262 260 260 259 259 259 259 259 259 259 259 259 260 261 261 262 262 263 263 263 263 264 265 265
274 281 276 276 275 273 272 277 279 281 281 282 281 281 281 282 283 284 283 282 282 280 280 279 277 276 277 275 275 275 275 275 274 274 274 273 273 272 272 271 270 269 269 268 267 265 264 263 262 261 261 261 262 262 262 262 262 262 262 262 262 261 261 260 259 258 258 258 258 259 259 259 260 260 259 260 260 260 260 261 262 261 262 262 263 263
278 280 272 275 273 276 278 279 279 280 280 281 282 283 283 283 283 282 280 279 278 277 276 276 276 276 275 275 274 273 272 272 273 272 271 271 271 270 270 269 268 267 267 265 264 264 262 261 260 260 260 260 261 261 261 261 261 262 262 262 261 260 259 259 258 258 258 258 258 258 259 259 259 259 259 259 260 260 260 260 260 260 261 262 263 263
278 273 277 275 272 272 273 275 279 274 274 279 281 282 283 284 283 280 278 277 276 276 275 274 274 274 273 273 272 272 270 270 271 270 269 269 269 268 268 267 266 265 264 264 263 262 261 261 260 260 259 260 261 261 261 261 261 261 261 261 260 260 258 258 258 257 257 258 258 258 258 258 259 259 259 259 259 259 259 263 265 264 262 261 265 268
276 277 277 273 272 272 277 279 280 280 279 280 281 282 280 280 280 279 277 277 276 276 275 274 273 272 271 271 271 270 269 269 269 269 267 267 267 267 266 265 263 263 262 262 261 260 260 260 260 259 259 260 261 260 260 260 260 260 260 260 260 259 258 258 257 257 257 257 257 258 258 258 258 258 258 258 258 258 258 259 260 266 267 267 267 268
Wind_Speed
6 8 8 8 11 13 13 14 16 17 17 17 15 13 15 16 16 14 16 14 13 14 12 13 15 16 16 16 16 18 19 18 17 16 15 16 16 15 10 3 7 5 4 5 6 11 12 12 11 10 10 11 11 10 9 7 5 3 3 3 4 4 6 6 7 7 7 8 8 8 9 9 8 8 9 8 9 9 8 9 10 10 9 10 10 11
2 9 10 11 14 15 15 14 13 13 13 14 15 15 15 13 16 13 16 12 13 11 11 11 15 16 15 16 19 20 18 17 14 15 15 17 17 6 7 6 5 4 3 6 11 12 13 13 15 13 11 12 13 12 12 10 9 6 5 4 3 3 5 6 7 6 7 7 7 7 8 8 7 8 8 8 8 8 7 8 8 8 8 9 9 9
7 11 10 15 15 15 15 11 10 11 15 15 13 12 13 12 14 16 17 12 4 1 11 12 16 15 17 21 22 18 14 12 13 13 17 15 8 7 5 5 5 7 10 11 11 12 13 16 16 14 13 13 13 12 13 13 12 10 7 5 4 2 3 4 6 6 6 6 7 7 6 6 6 6 6 7 7 7 8 8 7 7 7 8 8 8
10 7 15 16 13 13 14 12 10 12 12 10 10 10 12 11 11 11 5 6 4 4 10 13 16 13 17 19 17 10 8 11 10 16 18 6 3 5 6 7 9 11 11 12 12 12 14 15 14 14 14 14 12 11 12 14 14 10 10 9 7 5 3 3 4 5 5 5 5 5 6 4 5 4 4 5 5 6 7 7 6 6 7 8 7 8
13 10 6 5 9 12 13 11 10 10 11 10 11 10 13 14 13 13 13 14 15 15 11 10 12 11 8 5 5 5 4 7 11 18 6 7 7 8 11 12 13 14 12 11 12 14 15 16 16 15 15 13 13 13 13 13 13 10 13 12 10 7 5 3 3 3 4 4 4 3 3 1 2 3 2 4 6 7 6 6 7 8 8 8 8 8
14 15 2 3 6 8 8 10 13 11 11 10 11 13 16 15 16 14 15 13 9 8 6 10 11 5 2 1 5 3 6 7 14 14 7 9 10 11 13 13 14 14 13 12 13 14 14 14 15 17 17 17 15 15 13 12 14 14 13 13 11 8 7 6 5 3 3 4 4 4 5 5 6 7 7 8 8 7 8 9 7 7 9 10 9 9
7 4 1 6 7 7 9 11 13 9 10 9 6 4 6 8 9 12 11 7 6 6 1 4 5 10 4 11 11 11 9 13 14 7 13 12 11 13 13 12 11 13 11 12 14 14 15 15 17 18 17 16 15 14 12 12 14 15 14 13 12 9 8 7 7 6 4 5 5 6 7 6 7 7 6 6 6 6 6 6 8 8 9 10 10 10
7 5 3 2 6 7 7 9 10 11 9 9 4 4 4 8 8 8 7 6 10 9 13 9 8 10 12 8 9 5 11 15 2 13 13 12 13 14 15 13 12 12 12 12 13 14 14 16 16 16 15 14 14 13 12 13 14 16 15 15 14 11 9 9 8 7 5 5 5 6 7 6 7 7 8 7 5 5 5 5 6 7 7 8 10 10
4 5 6 6 8 7 9 10 2 6 8 3 2 4 4 4 8 6 5 7 8 10 10 4 9 6 8 5 3 8 12 8 11 12 13 13 13 14 14 14 13 13 14 14 13 14 14 15 15 13 14 13 12 12 13 14 14 14 14 14 14 13 11 10 11 8 7 5 6 6 6 6 6 7 7 6 6 4 4 5 5 6 6 7 9 10
2 0 6 6 5 7 8 4 2 5 8 3 1 1 2 3 4 6 7 8 8 6 13 5 10 6 11 6 6 5 5 3 12 11 12 15 13 11 11 12 13 13 13 14 14 12 12 13 13 13 12 12 10 11 13 14 14 14 13 14 15 15 11 11 12 10 9 8 6 6 7 8 8 7 6 6 6 6 5 6 6 6 6 6 7 9
4 2 5 3 7 7 3 4 3 1 2 2 2 6 7 7 7 7 5 6 4 10 11 8 15 8 9 4 4 6 1 5 10 10 12 13 14 14 13 13 12 13 13 11 10 11 12 11 10 10 11 12 13 12 14 14 13 12 13 13 15 14 12 12 12 12 11 9 8 7 8 9 9 8 8 8 7 6 6 6 6 6 6 6 6 7
10 4 2 5 10 0 2 2 2 0 1 1 4 4 6 8 7 4 4 4 4 10 6 3 10 11 5 3 4 4 7 8 6 8 12 12 13 12 11 10 11 12 11 10 9 10 10 10 12 12 14 15 15 15 15 13 13 12 12 13 14 14 14 12 12 12 12 10 9 9 9 9 9 9 7 8 8 8 8 8 7 6 5 6 6 7
5 10 10 5 2 8 6 6 3 4 4 4 5 4 5 6 4 7 5 5 7 8 3 1 2 5 13 12 8 5 8 12 10 7 13 14 13 12 12 11 10 10 10 10 10 9 9 10 12 14 14 14 15 14 15 14 12 11 12 14 14 14 14 12 12 12 13 11 11 10 10 10 9 8 8 8 8 8 8 7 7 7 6 5 6 7
9 3 9 7 0 7 8 7 4 3 7 6 5 4 4 7 7 10 8 7 10 0 3 2 1 9 10 11 12 8 11 11 13 14 13 14 13 12 10 9 10 10 10 10 10 10 11 11 12 13 13 12 12 13 12 12 11 10 10 12 13 13 13 13 12 13 13 12 12 11 10 10 9 9 8 8 7 7 7 7 7 7 7 7 7 7
12 8 6 9 4 9 11 11 7 7 7 10 7 6 6 8 6 9 6 11 9 9 2 4 3 4 3 4 16 16 11 14 13 13 13 13 12 11 9 10 10 11 10 9 10 11 11 12 12 11 11 10 10 11 10 9 10 9 9 10 11 11 12 13 13 12 13 11 12 11 10 9 9 9 8 8 7 8 8 7 8 8 7 7 8 7
10 11 1 6 3 9 10 11 2 2 4 3 2 2 4 8 5 12 6 9 8 9 8 4 5 4 5 5 9 13 13 13 12 13 13 12 10 9 9 9 9 9 9 8 9 10 11 11 10 9 9 9 8 9 8 9 8 8 8 8 9 10 11 13 13 12 11 11 10 11 12 11 10 9 8 8 7 8 8 8 8 8 8 7 8 8
5 8 6 2 3 4 2 2 2 1 4 2 2 4 5 4 4 6 6 6 9 10 15 6 12 13 9 13 6 14 15 12 11 11 11 10 9 8 8 7 7 7 7 7 7 7 8 9 9 8 9 8 9 8 9 9 8 8 7 8 10 12 13 13 12 11 11 10 11 11 11 11 11 10 10 9 10 9 8 8 8 8 8 9 8 7
8 10 2 5 8 4 3 3 2 1 3 3 4 4 3 1 3 4 11 9 12 15 11 7 12 12 6 8 8 9 13 10 9 10 9 9 7 9 7 7 6 6 6 6 6 6 6 6 7 7 7 8 9 9 9 10 8 7 7 10 12 13 14 12 11 10 10 10 10 10 10 10 10 10 10 10 10 9 8 8 8 8 8 8 7 7
4 9 8 3 1 4 3 2 4 5 4 7 5 5 4 4 6 7 3 6 10 13 10 11 15 14 14 13 5 9 10 9 8 7 7 8 7 7 6 6 5 5 5 5 5 5 5 5 6 6 7 8 8 9 9 9 9 10 10 11 11 12 11 11 9 9 9 10 8 8 9 10 9 9 9 9 10 10 9 9 9 9 9 8 8 8
2 6 8 2 2 3 2 3 8 4 3 3 2 5 3 3 6 11 8 7 7 12 10 12 10 11 11 5 7 11 9 9 7 6 6 5 5 4 4 4 4 4 5 4 4 5 4 5 5 6 6 7 7 7 7 8 9 11 11 11 10 10 9 9 10 10 10 10 9 10 9 10 9 9 9 9 9 9 9 9 10 10 10 9 8 7
7 5 11 4 5 3 6 5 9 10 8 6 5 7 5 3 2 4 5 9 10 12 11 10 11 10 2 5 4 9 8 7 7 6 5 4 3 4 3 3 3 3 3 3 3 3 4 5 5 5 5 6 6 6 6 6 8 8 9 9 10 10 9 9 8 8 7 8 8 10 11 11 11 12 10 11 10 9 9 8 8 8 8 9 8 7
3 5 11 10 11 9 8 4 7 7 5 7 5 7 8 9 9 10 11 7 6 10 13 12 14 7 3 3 6 5 6 6 5 7 6 5 4 3 2 1 1 1 3 3 3 3 3 3 4 4 4 4 4 5 5 6 6 7 8 8 8 8 8 8 8 7 6 6 7 8 9 9 9 9 9 10 9 10 10 10 9 9 8 8 8 8
1 2 3 9 10 11 12 7 2 5 6 8 6 11 7 8 7 9 14 9 7 7 3 5 10 4 4 2 6 5 3 3 4 4 5 5 4 4 2 1 3 4 5 4 5 5 4 5 4 4 4 4 3 3 4 2 3 4 4 4 5 6 7 7 7 6 6 4 4 4 5 5 5 6 6 7 7 9 10 10 10 10 10 9 9 8
4 2 6 11 11 12 14 9 5 1 2 5 4 3 1 3 1 6 7 4 5 5 9 9 11 1 3 1 2 3 3 2 1 3 5 4 4 4 3 3 3 3 4 5 5 6 6 5 4 5 4 3 3 2 3 2 2 3 2 2 3 4 4 4 5 6 6 6 7 4 3 3 4 6 6 8 8 10 11 10 10 10 10 10 10 10
3 2 7 5 5 4 8 5 3 3 3 1 1 1 2 3 7 7 4 1 7 6 9 8 9 4 2 5 3 5 6 5 5 5 5 5 5 4 3 3 2 2 2 2 2 2 2 1 2 3 4 4 4 4 4 4 4 4 5 5 5 4 4 3 3 4 5 5 7 8 8 8 7 7 7 7 7 9 9 9 9 9 10 10 10 10
2 4 3 4 6 7 6 9 7 2 2 2 2 5 8 10 11 7 7 5 8 3 7 4 5 2 2 4 7 8 6 5 4 3 3 2 2 2 2 1 0 1 2 4 4 6 6 6 5 6 6 6 6 6 6 7 7 6 6 6 5 5 6 6 5 5 5 4 5 6 8 9 9 8 7 6 6 7 7 7 8 8 8 8 9 10
1 2 7 9 9 9 9 6 5 3 6 7 8 9 10 11 12 13 10 12 12 8 11 11 13 13 12 15 16 13 8 8 5 5 4 3 2 2 2 2 2 2 2 2 3 3 4 5 7 7 7 7 7 8 7 7 8 8 7 8 7 6 5 5 5 6 6 6 6 6 6 7 8 9 9 9 8 6 5 6 7 8 8 8 7 8
2 6 9 11 12 13 13 15 15 13 14 13 14 15 15 14 10 11 12 15 10 12 17 8 15 14 15 16 17 16 5 5 3 2 2 1 0 1 2 3 5 5 5 4 4 5 4 5 5 6 7 8 8 9 8 7 7 8 8 9 9 8 7 5 6 7 7 7 7 6 7 6 6 6 7 7 8 9 9 8 7 6 7 8 9 8
3 9 8 11 7 12 15 17 16 16 14 14 15 16 17 17 16 15 13 14 14 13 17 14 19 21 19 18 17 17 3 1 3 1 1 1 2 2 3 5 5 6 5 5 5 5 6 6 5 6 6 6 6 6 7 6 7 7 7 8 8 8 8 8 8 8 8 8 8 7 7 7 6 5 6 6 8 8 9 10 10 9 9 7 7 7
2 8 9 10 9 10 15 15 13 14 13 15 15 18 19 20 22 20 19 18 19 19 19 21 23 26 21 23 14 4 4 3 1 1 1 2 3 5 5 5 6 6 6 6 6 6 5 6 7 7 7 7 7 7 7 7 7 7 6 6 6 6 7 6 6 7 8 8 8 8 8 8 7 6 6 6 6 7 7 8 9 9 10 11 10 9
4 6 5 1 6 8 11 14 13 13 11 15 18 20 21 24 23 18 18 19 19 20 22 24 24 24 13 3 7 3 3 1 1 3 4 4 4 7 7 7 7 7 8 9 9 8 7 7 7 7 8 8 9 9 9 9 8 7 7 7 7 7 6 5 6 7 7 8 8 8 8 8 8 8 8 8 8 8 8 8 8 8 10 10 9 9
4 7 5 6 10 11 11 11 10 13 13 13 17 22 25 22 19 15 15 12 14 17 18 18 16 15 2 3 4 2 3 4 5 5 5 3 5 7 7 8 8 8 9 9 10 9 9 8 8 8 8 8 9 10 10 9 9 7 7 7 7 7 7 7 7 7 8 8 8 9 9 8 8 9 9 9 8 9 7 7 7 8 8 9 10 10
6 8 9 9 12 12 13 9 9 1 6 13 18 23 21 20 18 19 18 18 18 18 16 15 12 2 3 4 4 3 3 5 6 7 6 7 6 7 8 9 9 9 10 10 11 11 11 10 10 10 10 9 9 10 10 10 9 9 9 9 8 7 7 8 8 8 9 9 9 10 9 9 9 9 8 8 9 8 9 9 9 9 9 10 9 9
5 7 11 7 10 11 11 5 1 2 11 15 3 5 5 8 8 13 15 17 18 15 6 2 2 2 3 3 3 2 5 6 8 8 8 7 7 7 8 8 8 9 9 10 10 11 11 11 10 9 10 10 10 10 10 10 10 10 9 9 9 9 9 10 10 9 10 11 12 11 11 11 10 11 11 9 8 8 9 10 11 10 9 9 9 9
7 8 9 6 9 11 7 2 5 11 13 2 3 8 9 13 12 13 17 17 12 11 7 9 6 8 6 4 2 4 5 7 9 11 11 11 9 8 8 8 8 9 10 10 11 11 11 11 12 11 11 11 11 11 11 10 10 10 9 9 10 10 11 10 12 12 12 12 13 12 10 12 11 12 11 12 12 11 11 11 11 11 10 10 11 11
11 10 7 8 8 7 7 9 9 10 1 3 5 5 5 5 9 9 13 14 16 14 11 10 7 4 4 3 5 5 7 8 9 10 11 11 9 7 7 7 8 9 10 10 12 12 12 10 9 9 10 9 10 10 10 10 10 9 9 10 11 11 12 13 13 14 13 14 13 14 14 13 12 12 12 12 12 12 13 13 13 13 10 9 9 9
16 12 10 12 8 9 8 12 17 9 15 15 15 12 10 6 5 7 6 7 4 2 6 5 5 7 3 5 5 6 7 7 8 8 7 4 4 4 5 7 8 9 10 11 12 12 10 9 9 10 10 11 11 11 11 11 10 10 11 11 11 11 12 13 13 14 13 13 13 14 14 14 13 12 12 11 12 13 14 14 14 13 10 11 11 11
13 13 9 11 8 11 14 12 12 12 13 6 5 3 8 6 6 6 7 5 8 6 5 4 4 2 5 6 7 8 7 6 9 8 6 6 7 7 5 6 8 9 10 11 10 9 9 9 10 11 10 12 11 11 10 10 11 11 11 12 12 12 12 12 13 13 13 14 12 13 13 12 12 13 13 13 14 14 14 13 13 13 11 12 12 13
6 9 10 11 9 8 12 13 12 10 5 5 1 4 5 4 4 2 4 9 1 4 6 5 2 3 4 7 8 8 5 6 8 9 7 9 11 9 7 8 9 9 9 9 9 9 10 10 10 10 10 10 11 11 10 11 10 10 11 12 13 12 13 13 14 13 13 14 14 14 13 13 13 13 14 16 16 16 16 15 15 14 13 13 12 13
5 7 8 10 13 12 11 11 13 4 6 1 3 4 3 3 2 2 9 6 3 1 1 1 3 6 8 7 7 6 6 8 9 9 11 12 10 9 8 7 8 8 8 8 8 8 9 10 10 11 11 11 10 10 11 10 10 9 11 12 12 12 13 13 13 14 14 15 15 13 12 12 14 15 15 17 18 17 16 16 16 15 14 14 12 13
4 4 9 12 12 12 15 11 8 8 4 4 5 5 5 2 1 5 12 3 4 3 4 3 6 6 7 7 6 6 8 9 10 12 13 12 11 9 6 6 6 7 9 9 9 8 8 8 9 10 11 10 10 10 11 9 9 10 11 12 13 12 13 14 14 14 13 14 12 11 12 12 14 18 19 18 18 18 18 16 16 16 16 15 14 14
2 3 4 9 11 11 11 12 11 9 5 4 5 5 6 2 6 9 2 5 7 4 5 6 7 7 7 8 8 8 9 10 12 11 12 11 8 7 7 7 7 8 8 8 8 8 7 8 10 12 11 10 10 11 9 9 10 11 12 12 13 13 14 13 14 12 12 13 14 14 16 17 17 17 17 17 17 18 18 18 18 17 17 16 16 18
5 4 6 9 6 6 8 9 9 10 1 6 4 5 7 6 5 2 2 4 4 2 3 5 5 6 6 8 9 10 11 12 12 11 10 9 7 7 8 8 9 9 10 10 9 8 7 9 11 11 12 11 11 10 10 10 12 13 11 12 14 14 14 14 13 14 14 15 15 15 16 17 18 17 15 17 18 19 19 18 18 18 18 18 19 19
4 7 7 9 6 5 8 8 6 4 5 6 7 4 3 9 8 5 0 3 2 5 6 6 7 8 7 8 9 10 11 11 10 9 8 7 7 7 8 8 8 9 9 9 8 9 8 9 10 11 12 11 11 11 10 10 12 13 13 15 14 14 13 13 13 14 15 15 16 17 16 16 16 15 15 16 16 16 18 20 19 18 17 18 18 18
8 10 7 10 4 7 5 7 6 6 7 6 8 9 10 12 11 4 3 5 7 7 5 5 6 6 4 5 7 9 9 9 9 8 7 8 8 9 9 9 9 9 9 9 9 8 7 8 11 13 15 12 11 11 10 8 10 14 15 14 12 12 13 14 14 15 16 17 16 15 14 14 14 15 16 15 14 16 16 18 17 17 17 17 17 17
6 10 4 9 11 11 13 14 11 12 11 8 9 9 13 14 12 8 7 8 7 7 4 5 6 5 4 3 5 6 7 8 8 8 8 9 9 9 9 9 9 8 8 7 7 7 7 9 10 12 14 15 11 11 9 9 9 14 15 13 13 14 13 14 15 17 17 17 15 16 16 18 17 15 13 14 13 13 14 15 15 15 16 16 17 17
11 11 7 8 6 7 7 7 10 15 16 13 15 14 12 11 12 10 9 7 6 2 2 2 3 4 3 2 4 6 7 6 8 9 8 8 9 9 9 9 8 8 8 8 9 9 9 9 11 13 14 16 12 10 10 10 10 11 14 14 14 13 14 15 17 19 18 16 16 16 15 17 15 13 14 13 12 12 12 12 13 14 15 14 15 15
9 12 11 10 11 12 12 13 13 14 14 15 14 12 12 14 14 10 4 1 2 3 2 3 3 2 3 3 5 6 7 6 7 8 7 7 8 8 8 8 8 9 8 8 9 9 9 9 11 14 15 15 13 11 11 11 12 13 13 13 13 14 15 14 17 18 17 18 16 15 14 15 19 18 14 13 12 13 13 12 13 14 15 14 14 15
3 4 5 4 9 11 13 17 18 17 18 18 17 15 13 12 11 4 5 4 5 5 5 4 3 3 2 4 1 4 4 6 6 7 8 8 8 8 7 8 9 9 10 10 10 8 9 11 13 13 14 15 13 13 12 13 13 11 14 15 14 13 14 18 20 18 19 17 16 15 15 14 14 14 14 14 13 13 12 12 13 14 15 15 14 15
9 11 6 4 9 11 12 13 12 10 10 11 12 13 12 9 6 5 5 5 5 6 6 5 5 4 3 2 2 3 4 5 5 6 8 7 7 8 9 9 9 10 10 9 9 9 11 11 12 14 15 15 13 13 15 13 12 12 12 13 11 13 17 16 18 20 17 16 15 16 14 14 13 13 15 15 14 15 14 16 24 20 16 17 21 29
14 17 10 11 10 11 13 15 14 14 15 15 14 1 7 5 6 7 7 7 7 6 6 6 5 5 5 5 3 3 4 5 6 6 7 7 7 7 8 9 10 10 11 10 11 10 10 12 13 15 16 14 13 13 12 14 14 14 14 12 14 15 15 17 17 16 16 16 15 15 16 15 15 15 14 14 15 14 15 15 13 21 27 28 29 29
Wind_Direction
167 215 206 207 227 241 247 241 245 259 271 281 283 273 271 272 274 273 269 278 281 286 274 276 281 288 293 288 281 276 269 269 282 290 284 270 267 269 284 40 68 59 6 330 13 42 38 32 29 27 21 16 23 25 20 13 0 323 271 237 228 193 196 192 194 199 197 202 209 215 217 219 212 211 212 212 214 216 212 205 198 187 185 185 185 191
217 232 231 231 242 253 260 270 282 280 273 277 280 278 276 272 279 275 283 290 289 290 280 283 283 282 287 288 278 267 269 278 282 276 266 262 259 283 76 69 47 34 46 43 40 40 42 35 31 28 22 17 21 22 24 24 13 2 341 301 271 211 194 202 203 201 204 209 210 212 219 223 223 216 211 216 215 217 217 213 206 195 187 186 184 185
211 230 235 236 243 254 263 272 274 276 276 272 269 275 280 278 281 284 277 273 312 317 279 290 293 291 283 272 270 273 279 272 261 254 256 265 310 81 47 51 18 51 55 47 50 49 47 41 36 29 24 22 22 22 26 20 17 16 7 356 324 290 223 212 209 208 213 215 220 224 231 225 233 232 230 227 225 218 220 216 210 203 192 190 188 185
250 238 236 240 250 257 259 256 266 268 261 259 261 262 267 285 290 299 314 105 196 212 294 302 295 283 268 266 270 276 265 251 249 251 254 282 69 56 50 47 63 67 58 51 45 45 42 43 36 31 24 16 12 17 24 25 22 18 10 2 350 332 300 267 226 221 228 229 232 230 240 254 243 243 231 230 229 226 221 218 207 206 200 192 191 190
253 279 33 252 247 249 258 263 258 259 261 253 250 260 272 274 281 292 306 310 312 291 273 289 278 279 262 231 232 188 181 236 255 257 276 94 78 95 86 71 66 66 59 51 41 38 38 36 33 29 22 16 14 12 19 25 24 15 12 5 357 348 337 319 295 231 232 232 220 210 201 164 231 241 241 220 223 221 215 211 211 208 197 196 197 193
261 268 130 236 222 253 256 259 250 254 272 275 261 257 266 281 292 299 307 317 307 294 95 331 327 312 94 346 223 244 210 235 257 273 102 93 98 93 84 81 75 68 58 50 44 43 42 40 36 30 23 20 12 10 10 24 26 20 16 10 5 1 357 355 337 308 268 245 228 219 223 230 227 236 225 226 228 218 213 216 216 209 202 200 199 198
285 61 70 242 242 238 243 253 258 258 265 274 281 7 311 301 298 296 301 317 295 303 100 52 309 293 258 275 262 257 268 265 267 52 78 81 83 83 75 69 69 72 63 48 45 42 44 40 40 34 27 21 14 7 3 20 27 22 17 13 11 12 5 11 353 336 302 276 265 255 249 251 256 257 251 244 241 235 226 218 213 207 204 203 203 204
198 230 124 200 229 232 239 245 243 234 253 264 50 324 322 298 296 305 304 279 271 282 280 247 221 269 294 286 269 202 249 248 255 83 86 91 89 82 84 69 60 65 64 57 44 39 40 43 41 37 30 24 17 5 8 22 26 20 15 14 14 12 12 15 2 348 331 307 298 284 274 267 265 263 272 277 271 249 239 223 212 209 209 203 205 207
185 178 192 181 197 218 226 237 84 196 225 294 64 21 317 321 306 303 288 284 289 307 295 180 209 255 260 304 128 216 229 250 95 92 92 86 80 85 85 88 82 66 57 54 50 38 39 41 41 38 34 26 17 14 19 25 27 22 16 15 16 14 14 11 6 358 346 325 313 306 292 281 276 276 275 275 272 263 237 228 214 211 209 202 206 211
178 172 198 202 202 235 237 223 131 189 238 85 84 101 231 252 245 266 271 281 290 293 275 207 189 251 286 300 171 226 287 124 109 106 102 97 87 74 73 74 72 68 60 54 46 39 39 41 43 41 38 31 23 21 27 30 28 26 19 16 17 16 12 9 9 3 356 342 324 310 303 298 295 293 288 277 271 267 249 237 222 214 215 212 205 209
278 116 19 253 225 257 65 62 8 316 312 88 285 290 273 242 241 230 244 269 276 258 262 239 192 218 294 330 184 180 338 97 127 117 107 101 97 85 67 57 54 56 56 49 44 38 37 37 39 43 43 34 31 28 29 28 27 24 21 15 19 15 11 10 8 6 2 354 342 329 321 312 302 298 293 290 284 276 270 261 240 227 225 218 212 206
228 171 170 234 243 157 186 127 102 98 59 245 267 286 303 278 219 247 246 214 253 273 311 138 182 216 250 127 71 62 114 54 56 79 99 86 73 70 67 60 59 58 53 51 43 38 31 27 33 35 34 28 27 27 28 27 23 22 19 18 18 16 13 11 10 9 6 358 352 341 331 320 314 309 302 294 289 288 284 278 269 259 241 228 219 210
224 221 219 198 199 210 191 246 169 161 162 210 239 252 273 292 288 266 179 224 216 265 109 170 161 249 236 244 304 228 48 58 60 77 108 106 93 80 72 69 61 62 58 49 43 36 31 28 26 29 30 26 24 23 22 23 23 21 20 19 20 17 13 14 14 15 9 7 358 353 342 336 329 319 310 302 298 296 290 287 281 272 261 243 228 216
276 130 191 184 138 210 199 206 178 212 191 198 208 221 253 283 274 270 278 279 277 176 174 115 73 262 273 280 252 248 69 82 85 74 81 90 90 84 76 66 67 57 53 49 42 37 31 27 28 28 29 26 23 23 21 19 18 15 16 18 22 17 12 14 18 18 14 11 3 358 353 342 335 329 322 313 306 303 298 295 290 283 273 269 256 241
289 268 197 170 213 154 197 219 252 322 160 199 206 207 240 253 264 279 281 276 274 291 56 262 318 232 319 24 68 82 82 83 80 82 77 77 77 76 75 71 62 62 53 46 44 39 34 29 27 29 26 23 23 20 20 17 14 15 13 15 16 15 17 22 23 21 18 13 7 4 357 349 344 335 328 322 320 314 307 302 296 289 284 279 279 270
247 256 46 141 358 163 187 216 340 2 296 204 242 292 263 243 243 256 273 281 296 303 286 214 203 322 286 83 113 94 85 77 79 81 83 77 76 75 68 60 57 54 55 47 44 41 37 32 28 25 24 20 17 20 17 18 14 14 12 12 17 20 21 23 22 21 18 14 8 5 2 358 350 339 330 323 322 318 314 308 301 297 293 289 288 286
269 265 100 175 130 233 179 39 175 241 257 90 144 216 245 25 294 287 276 265 279 275 260 267 267 260 267 258 91 95 88 79 76 75 75 77 78 73 69 62 57 52 49 48 44 40 36 30 27 23 19 14 11 12 13 13 14 13 12 12 19 23 25 23 18 14 16 14 15 10 6 360 355 349 339 330 325 320 315 311 304 298 297 296 290 286
277 277 193 171 233 132 34 12 36 19 313 119 220 273 44 256 309 253 269 271 264 261 265 259 270 276 280 276 122 108 93 86 79 82 78 80 76 70 65 61 59 57 56 54 55 48 41 35 23 19 13 12 8 3 2 4 3 6 10 13 23 24 21 18 13 11 12 10 9 5 4 4 3 356 345 338 331 327 321 317 313 309 305 301 298 295
8 287 275 283 10 103 115 245 232 192 232 244 286 36 300 246 245 210 225 248 258 255 269 235 256 258 265 261 175 143 112 106 86 74 70 65 61 64 68 62 59 56 49 45 38 32 32 27 22 9 6 2 0 360 359 356 0 11 16 16 22 22 19 15 11 8 13 14 11 3 0 360 360 2 353 345 339 335 334 332 326 319 312 307 301 295
124 274 278 133 275 125 177 187 262 211 149 313 9 281 209 284 261 269 253 282 274 269 266 263 246 261 249 310 47 106 105 108 110 90 81 76 68 66 58 56 33 33 30 19 18 17 4 13 8 359 358 352 345 347 349 1 8 15 15 16 15 15 17 16 14 10 8 8 7 3 3 4 2 2 354 348 346 342 343 338 335 329 323 316 315 305
278 243 271 238 119 200 249 201 247 257 246 192 206 236 203 214 20 312 289 253 257 268 256 271 257 257 275 42 81 102 102 107 114 118 122 113 108 93 79 51 36 16 14 357 353 358 353 344 343 333 326 328 324 337 345 355 10 13 12 9 8 9 5 11 10 7 9 5 4 5 5 1 3 2 359 351 350 348 348 344 336 334 326 318 309 308
261 214 252 274 265 240 257 50 0 355 320 292 262 251 261 273 266 266 261 229 238 244 257 254 258 253 83 29 102 105 121 120 127 131 133 140 130 137 105 100 326 323 293 288 301 292 297 299 310 311 305 320 328 338 350 356 4 10 11 6 1 1 3 2 359 0 358 1 356 6 2 4 3 357 350 349 345 352 353 353 348 340 332 325 317 313
339 359 290 260 254 268 278 327 10 338 309 288 284 277 288 283 265 251 263 256 276 257 327 261 277 253 44 22 83 101 81 92 111 126 135 147 158 149 155 188 238 243 248 255 250 251 251 251 257 264 270 283 287 301 297 317 352 4 2 357 350 351 350 351 341 338 337 340 347 354 358 353 356 353 345 345 350 355 357 355 349 346 341 332 324 315
84 240 260 254 264 270 279 279 100 59 175 253 241 53 72 249 348 290 282 336 295 301 281 267 254 230 144 65 116 125 144 142 135 134 149 155 170 162 163 221 235 249 254 242 232 230 224 222 237 244 257 279 276 299 318 317 328 326 333 343 322 332 330 330 334 338 339 343 345 343 339 349 345 351 354 359 359 358 355 352 350 347 346 339 333 330
260 238 245 272 273 271 260 207 107 73 121 98 188 352 97 258 263 257 256 180 259 210 243 266 259 281 216 194 215 182 192 182 178 180 175 178 174 174 196 210 224 244 276 332 356 347 326 314 316 336 350 341 342 342 338 338 338 344 342 342 333 324 322 322 316 331 332 339 341 342 348 348 351 351 354 357 354 353 349 350 346 343 343 341 336 332
263 267 319 272 261 260 257 259 270 269 35 339 187 247 252 254 252 251 250 243 261 179 228 234 282 289 98 191 215 223 207 187 166 164 187 151 165 171 191 207 215 314 340 342 343 348 350 352 352 357 359 358 0 359 355 354 350 344 341 338 342 335 336 339 335 329 332 324 332 336 344 348 348 346 342 339 346 345 343 342 343 339 336 336 332 330
251 229 233 243 253 258 268 292 307 285 278 281 293 290 285 277 275 266 272 267 265 288 284 265 269 283 285 286 275 267 248 161 167 173 176 161 138 187 207 245 247 287 288 304 315 315 329 328 342 344 343 346 348 351 352 350 348 346 342 337 338 334 325 327 331 334 335 330 326 327 335 341 345 344 344 343 336 329 327 335 331 332 331 329 324 323
227 254 243 245 244 252 262 269 274 278 281 281 281 278 277 273 266 263 251 258 285 295 274 257 270 271 277 283 289 296 318 125 116 87 80 86 191 321 293 273 267 264 269 272 285 287 296 304 306 322 323 331 333 334 338 342 338 341 339 338 337 339 334 328 330 327 327 326 326 325 323 323 323 327 329 333 335 335 332 325 321 316 323 324 323 319
266 271 272 276 274 274 272 275 280 280 281 281 277 275 274 274 271 259 256 267 270 257 270 287 283 281 281 283 287 293 85 26 110 63 4 304 290 279 289 286 285 282 280 277 276 282 284 289 292 291 291 288 295 296 303 309 312 318 324 326 328 329 332 332 332 328 326 324 320 320 318 317 317 310 312 325 327 327 330 331 328 323 315 312 312 311
269 261 271 273 277 272 269 269 272 278 280 278 271 270 270 268 265 267 275 275 268 269 275 275 274 274 279 278 289 77 82 95 53 81 290 321 345 344 334 328 318 311 304 302 306 307 305 302 296 288 286 286 284 288 285 282 280 282 286 289 295 306 313 325 320 320 321 320 317 315 313 309 306 301 303 307 304 309 313 316 319 319 319 316 309 308
253 261 261 314 284 262 263 265 272 279 285 278 277 275 270 266 267 274 278 274 279 272 267 268 271 272 276 74 105 83 101 54 22 328 356 341 355 345 332 330 326 326 321 309 304 302 300 297 296 296 294 291 291 288 289 284 278 272 270 273 278 284 288 298 305 305 310 309 310 311 311 310 303 301 297 295 298 298 295 298 303 307 307 306 301 298
263 258 293 298 282 275 269 269 282 279 277 272 275 269 262 263 270 267 265 275 269 272 273 275 270 272 63 69 90 117 47 21 345 346 326 330 341 333 325 315 318 321 319 310 299 292 290 289 292 296 300 301 300 299 294 289 284 279 273 275 281 284 292 291 288 290 289 294 299 300 303 302 302 301 297 292 290 291 290 290 292 291 295 301 303 303
242 263 270 269 268 265 273 292 295 292 287 277 249 248 260 264 261 266 266 267 264 269 269 263 271 17 98 70 59 35 45 340 332 329 328 316 324 325 311 308 306 309 308 311 310 305 299 293 290 291 291 295 304 308 307 305 300 293 291 289 287 294 291 291 291 293 295 297 298 298 298 298 297 295 293 291 288 288 288 288 287 288 290 289 289 294
238 246 257 260 266 275 287 310 90 252 263 250 316 93 224 264 274 276 271 265 264 265 290 8 120 156 140 113 84 359 352 329 328 311 310 298 297 300 298 300 307 311 316 319 320 316 313 308 300 293 299 313 323 330 328 321 313 305 301 304 311 310 311 309 308 306 305 305 303 300 299 299 298 297 295 292 288 286 284 284 284 283 284 285 286 282
250 245 246 245 252 263 267 125 251 222 238 337 19 281 270 267 255 248 256 262 271 275 264 261 221 160 159 81 69 340 326 312 306 309 300 294 283 282 292 301 308 320 327 326 329 331 332 333 332 340 353 350 341 330 326 327 324 325 331 343 338 326 316 312 305 300 296 295 294 293 293 288 286 287 290 291 292 291 288 284 283 280 283 278 276 277
245 242 248 246 243 260 245 231 245 239 172 141 235 238 223 230 231 254 263 262 265 264 265 265 269 133 116 33 354 331 322 305 295 284 279 274 273 275 291 304 318 325 325 329 328 330 333 340 347 348 338 334 330 330 334 330 333 335 335 329 315 306 301 299 296 293 291 291 293 293 292 291 290 288 288 290 289 287 289 291 288 286 283 273 272 271
242 247 244 256 234 244 236 241 248 295 293 276 271 260 246 227 247 256 283 296 50 261 286 262 155 136 52 349 334 326 315 304 294 290 284 326 299 275 296 316 324 323 322 326 329 330 342 355 352 342 333 330 334 336 336 332 332 328 319 312 306 303 301 300 297 295 293 293 293 295 295 294 292 291 290 290 289 286 287 290 289 285 282 277 274 273
231 230 236 248 243 240 254 261 267 265 266 275 91 78 43 71 48 9 337 277 268 235 232 203 155 84 359 331 327 326 324 307 305 303 325 350 348 329 320 308 318 321 326 329 340 343 345 347 338 331 332 329 333 338 339 341 335 326 318 315 315 309 303 302 299 300 300 299 299 299 300 300 301 302 300 297 292 289 286 286 284 281 280 277 280 277
255 241 238 233 254 248 245 249 248 253 262 101 212 85 76 79 13 342 285 280 25 55 62 70 32 359 341 324 321 321 320 301 293 301 321 344 328 326 324 314 318 328 334 346 346 336 333 331 327 323 328 334 334 342 356 349 341 332 322 317 314 312 308 307 305 304 306 307 308 307 305 304 304 304 304 301 297 295 292 288 284 281 279 277 275 274
185 213 209 232 238 237 245 245 248 250 258 135 138 115 123 37 27 349 285 289 81 251 144 52 357 315 308 311 304 297 284 286 291 303 327 317 316 311 312 325 331 333 338 333 331 334 327 319 325 329 337 340 341 359 357 345 335 325 317 313 314 310 305 303 305 306 307 305 302 302 308 310 308 306 304 300 297 297 293 291 287 282 279 277 275 275
164 217 205 222 228 235 236 249 264 264 271 273 250 279 129 124 89 276 253 281 172 160 186 212 251 276 282 286 285 283 276 286 297 302 305 307 306 309 329 344 332 332 325 329 330 338 321 325 329 328 332 338 349 353 342 335 330 322 320 312 307 304 304 306 308 308 309 310 312 316 315 313 310 305 301 297 295 294 291 289 288 287 285 282 278 274
228 187 245 227 231 235 237 248 246 261 254 274 280 215 160 193 236 248 317 110 159 193 204 219 253 265 279 280 284 279 287 291 294 296 297 302 308 314 322 326 322 316 317 324 336 339 335 334 330 326 331 341 347 340 335 334 325 318 313 306 300 306 309 311 310 311 312 307 304 304 301 299 298 297 296 296 295 293 289 287 287 287 286 284 281 278
220 178 216 224 230 229 229 248 252 258 100 173 143 75 215 223 246 268 139 180 171 214 280 280 269 275 272 281 284 290 293 294 296 296 297 296 304 310 317 321 320 319 322 329 335 357 10 336 327 325 328 336 338 335 330 333 318 312 311 304 306 311 309 307 306 306 306 303 303 305 307 308 306 301 300 297 295 293 290 290 288 287 286 284 281 278
247 259 250 249 215 231 229 224 223 253 265 155 164 227 218 215 239 274 325 289 281 312 296 285 285 296 289 276 286 289 290 293 290 288 290 293 300 312 311 313 315 317 320 327 340 353 359 331 324 321 321 327 326 325 327 325 312 310 307 300 306 307 309 309 310 310 307 306 305 303 301 300 299 299 297 295 293 291 289 288 288 286 282 280 279 278
196 226 227 258 235 254 233 254 269 259 273 192 190 238 256 265 268 282 286 271 286 286 287 266 281 292 251 258 272 279 284 281 288 295 296 299 306 309 312 312 318 319 323 331 342 349 350 337 325 321 313 317 325 319 317 314 304 301 297 300 311 311 313 311 310 305 301 301 298 296 296 296 296 296 295 291 291 287 283 281 281 279 277 275 274 270
223 251 238 250 256 260 274 279 286 282 265 240 226 236 254 265 271 274 256 258 254 272 274 274 287 283 251 221 255 266 263 279 290 294 298 302 303 304 305 308 312 320 325 340 335 347 349 328 315 309 307 311 322 312 308 307 303 297 297 308 310 309 309 307 305 301 298 298 296 296 298 297 295 291 286 286 285 282 282 285 286 282 281 278 276 277
240 243 240 234 249 267 255 235 251 256 258 256 258 251 250 253 260 263 257 240 260 215 176 217 246 256 240 205 237 261 275 286 290 292 297 298 299 302 306 308 311 323 333 329 334 350 332 326 313 313 315 309 315 311 306 307 301 296 301 304 308 307 305 303 301 299 297 296 298 296 296 294 292 292 290 287 286 284 286 288 288 285 282 279 277 274
246 233 243 225 238 237 258 261 256 255 265 265 263 268 263 262 260 257 237 162 135 131 193 170 135 188 188 223 238 261 273 287 288 290 296 298 300 303 306 310 317 322 322 329 331 332 317 315 313 311 310 306 307 309 304 300 302 305 303 301 304 306 303 300 302 299 298 298 297 294 293 289 289 290 289 288 285 283 282 278 278 280 280 283 284 283
255 118 236 174 237 240 245 253 261 264 262 262 260 256 253 252 263 189 147 162 161 161 161 161 175 207 190 239 280 273 276 273 281 290 293 296 296 299 309 317 318 320 323 324 320 323 317 314 306 301 300 298 302 302 301 303 303 303 308 306 303 302 302 303 302 300 296 295 295 292 292 290 291 290 288 288 285 276 274 278 278 274 274 271 276 277
238 234 197 224 250 250 246 247 241 253 260 262 253 254 251 238 224 164 143 156 177 176 175 183 186 182 195 233 254 255 262 275 282 291 289 292 297 306 312 317 318 318 314 312 313 314 306 299 297 299 299 295 298 301 304 302 300 300 304 302 299 302 302 301 304 301 297 296 294 294 293 293 291 291 288 286 285 284 279 267 271 272 272 276 270 270
229 235 225 236 233 251 246 241 241 244 259 269 281 169 119 139 166 176 186 189 182 180 170 183 196 198 200 212 209 222 257 272 283 294 291 292 298 309 314 316 314 310 308 313 310 305 301 304 304 300 296 296 303 303 302 303 302 303 301 298 301 303 301 300 298 298 296 296 293 293 294 292 290 287 285 284 284 282 283 285 274 273 275 276 278 276